Time,TemperatureF,DewpointF,PressureIn,WindDirection,WindDirectionDegrees,WindSpeedMPH,WindSpeedGustMPH,Humidity,HourlyPrecipIn,Conditions,Clouds,dailyrainin,SoftwareType,DateUTC
2013-10-16 00:00:00,56.0,54.0,30.24,SSW,202,4.0,8.0,95,0.00,,,0.00,Rainwise IP-100,2013-10-16 04:00:00,
2013-10-16 00:01:00,56.0,54.0,30.24,SSW,202,5.0,8.0,95,0.00,,,0.00,Rainwise IP-100,2013-10-16 04:01:00,
2013-10-16 00:02:00,56.0,54.0,30.24,SSW,202,6.0,8.0,95,0.00,,,0.00,Rainwise IP-100,2013-10-16 04:02:00,
2013-10-16 00:07:00,56.0,54.0,30.24,SW,225,1.0,9.0,95,0.00,,,0.00,Rainwise IP-100,2013-10-16 04:07:00,
2013-10-16 00:12:00,56.0,54.0,30.23,SW,225,2.0,7.0,96,0.00,,,0.00,Rainwise IP-100,2013-10-16 04:12:00,
2013-10-16 00:17:00,56.0,54.0,30.23,SW,225,6.0,7.0,96,0.00,,,0.00,Rainwise IP-100,2013-10-16 04:17:00,
2013-10-16 00:22:00,56.0,54.0,30.23,SW,225,6.0,12.0,95,0.00,,,0.00,Rainwise IP-100,2013-10-16 04:22:00,
2013-10-16 00:27:00,56.0,54.0,30.23,SW,225,7.0,9.0,95,0.00,,,0.00,Rainwise IP-100,2013-10-16 04:27:00,
2013-10-16 00:32:00,56.0,54.0,30.23,South,180,7.0,10.0,96,0.00,,,0.00,Rainwise IP-100,2013-10-16 04:32:00,
2013-10-16 00:37:00,56.0,54.0,30.23,SSW,202,4.0,8.0,96,0.00,,,0.00,Rainwise IP-100,2013-10-16 04:37:00,
2013-10-16 00:42:00,56.0,54.0,30.23,SW,225,4.0,7.0,96,0.00,,,0.00,Rainwise IP-100,2013-10-16 04:42:00,
2013-10-16 00:47:00,56.0,54.0,30.23,SW,225,5.0,7.0,96,0.00,,,0.00,Rainwise IP-100,2013-10-16 04:47:00,
2013-10-16 00:52:00,56.0,54.0,30.22,SSW,202,5.0,9.0,95,0.00,,,0.00,Rainwise IP-100,2013-10-16 04:52:00,
2013-10-16 00:57:00,56.0,54.0,30.22,SW,225,6.0,9.0,96,0.00,,,0.00,Rainwise IP-100,2013-10-16 04:57:00,
2013-10-16 01:02:00,56.0,54.0,30.22,SSW,202,6.0,11.0,95,0.00,,,0.00,Rainwise IP-100,2013-10-16 05:02:00,
2013-10-16 01:07:00,56.0,54.0,30.22,SSW,202,7.0,12.0,94,0.00,,,0.00,Rainwise IP-100,2013-10-16 05:07:00,
2013-10-16 01:12:00,56.0,54.0,30.22,South,180,6.0,13.0,94,0.00,,,0.00,Rainwise IP-100,2013-10-16 05:12:00,
2013-10-16 01:17:00,56.0,54.0,30.22,South,180,12.0,12.0,94,0.00,,,0.00,Rainwise IP-100,2013-10-16 05:17:00,
2013-10-16 01:22:00,56.0,54.0,30.23,SSW,202,7.0,12.0,94,0.00,,,0.00,Rainwise IP-100,2013-10-16 05:22:00,
2013-10-16 01:27:00,56.0,54.0,30.23,SW,225,7.0,11.0,94,0.00,,,0.00,Rainwise IP-100,2013-10-16 05:27:00,
2013-10-16 01:32:00,56.0,54.0,30.23,SSW,202,10.0,12.0,94,0.00,,,0.00,Rainwise IP-100,2013-10-16 05:32:00,
2013-10-16 01:37:00,56.0,54.0,30.23,SSW,202,6.0,13.0,95,0.00,,,0.00,Rainwise IP-100,2013-10-16 05:37:00,
2013-10-16 01:42:00,55.0,54.0,30.23,SSW,202,7.0,10.0,95,0.00,,,0.00,Rainwise IP-100,2013-10-16 05:42:00,
2013-10-16 01:47:00,56.0,54.0,30.23,SSW,202,7.0,12.0,94,0.00,,,0.00,Rainwise IP-100,2013-10-16 05:47:00,
2013-10-16 01:52:00,56.0,54.0,30.23,SSW,202,5.0,12.0,94,0.00,,,0.00,Rainwise IP-100,2013-10-16 05:52:00,
2013-10-16 01:57:00,56.0,54.0,30.23,South,180,6.0,10.0,94,0.00,,,0.00,Rainwise IP-100,2013-10-16 05:57:00,
2013-10-16 02:02:00,55.0,53.0,30.23,SW,225,1.0,9.0,94,0.00,,,0.00,Rainwise IP-100,2013-10-16 06:02:00,
2013-10-16 02:07:00,55.0,54.0,30.23,SW,225,6.0,6.0,95,0.00,,,0.00,Rainwise IP-100,2013-10-16 06:07:00,
2013-10-16 02:12:00,55.0,54.0,30.23,SW,225,6.0,8.0,95,0.00,,,0.00,Rainwise IP-100,2013-10-16 06:12:00,
2013-10-16 02:17:00,55.0,54.0,30.23,SSW,202,4.0,7.0,96,0.00,,,0.00,Rainwise IP-100,2013-10-16 06:17:00,
2013-10-16 02:22:00,55.0,54.0,30.23,South,180,6.0,8.0,95,0.00,,,0.00,Rainwise IP-100,2013-10-16 06:22:00,
2013-10-16 02:27:00,55.0,54.0,30.23,SW,225,2.0,7.0,96,0.00,,,0.00,Rainwise IP-100,2013-10-16 06:27:00,
2013-10-16 02:32:00,55.0,54.0,30.23,SW,225,5.0,6.0,96,0.00,,,0.00,Rainwise IP-100,2013-10-16 06:32:00,
2013-10-16 02:37:00,55.0,54.0,30.23,West,270,2.0,6.0,96,0.00,,,0.00,Rainwise IP-100,2013-10-16 06:37:00,
2013-10-16 02:42:00,54.0,53.0,30.23,NW,315,3.0,6.0,97,0.00,,,0.00,Rainwise IP-100,2013-10-16 06:42:00,
2013-10-16 02:47:00,54.0,53.0,30.23,NW,315,6.0,8.0,97,0.00,,,0.00,Rainwise IP-100,2013-10-16 06:47:00,
2013-10-16 02:52:00,54.0,53.0,30.23,WNW,292,5.0,7.0,97,0.00,,,0.00,Rainwise IP-100,2013-10-16 06:52:00,
2013-10-16 02:57:00,55.0,54.0,30.23,West,270,3.0,6.0,97,0.00,,,0.00,Rainwise IP-100,2013-10-16 06:57:00,
2013-10-16 03:02:00,55.0,54.0,30.22,WSW,247,4.0,6.0,96,0.00,,,0.00,Rainwise IP-100,2013-10-16 07:02:00,
2013-10-16 03:07:00,55.0,54.0,30.22,West,270,4.0,7.0,96,0.00,,,0.00,Rainwise IP-100,2013-10-16 07:07:00,
2013-10-16 03:12:00,55.0,54.0,30.22,SW,225,3.0,7.0,95,0.00,,,0.00,Rainwise IP-100,2013-10-16 07:12:00,
2013-10-16 03:17:00,55.0,53.0,30.22,SSW,202,9.0,9.0,94,0.00,,,0.00,Rainwise IP-100,2013-10-16 07:17:00,
2013-10-16 03:22:00,55.0,54.0,30.22,SW,225,3.0,10.0,95,0.00,,,0.00,Rainwise IP-100,2013-10-16 07:22:00,
2013-10-16 03:27:00,55.0,53.0,30.22,SW,225,5.0,8.0,94,0.00,,,0.00,Rainwise IP-100,2013-10-16 07:27:00,
2013-10-16 03:32:00,55.0,53.0,30.22,WSW,247,7.0,8.0,94,0.00,,,0.00,Rainwise IP-100,2013-10-16 07:32:00,
2013-10-16 03:37:00,55.0,53.0,30.22,SW,225,5.0,13.0,93,0.00,,,0.00,Rainwise IP-100,2013-10-16 07:37:00,
2013-10-16 03:42:00,55.0,53.0,30.21,WSW,247,6.0,9.0,93,0.00,,,0.00,Rainwise IP-100,2013-10-16 07:42:00,
2013-10-16 03:47:00,55.0,53.0,30.21,SW,225,7.0,9.0,93,0.00,,,0.00,Rainwise IP-100,2013-10-16 07:47:00,
2013-10-16 03:52:00,55.0,53.0,30.21,SW,225,6.0,7.0,93,0.00,,,0.00,Rainwise IP-100,2013-10-16 07:52:00,
2013-10-16 03:57:00,55.0,53.0,30.21,SW,225,6.0,7.0,93,0.00,,,0.00,Rainwise IP-100,2013-10-16 07:57:00,
2013-10-16 04:02:00,55.0,53.0,30.21,WSW,247,6.0,10.0,92,0.00,,,0.00,Rainwise IP-100,2013-10-16 08:02:00,
2013-10-16 04:07:00,55.0,53.0,30.21,SW,225,6.0,12.0,92,0.00,,,0.00,Rainwise IP-100,2013-10-16 08:07:00,
2013-10-16 04:12:00,55.0,53.0,30.20,WSW,247,6.0,10.0,92,0.00,,,0.00,Rainwise IP-100,2013-10-16 08:12:00,
2013-10-16 04:17:00,55.0,53.0,30.20,SW,225,7.0,10.0,93,0.00,,,0.00,Rainwise IP-100,2013-10-16 08:17:00,
2013-10-16 04:22:00,55.0,53.0,30.20,SW,225,3.0,10.0,93,0.00,,,0.00,Rainwise IP-100,2013-10-16 08:22:00,
2013-10-16 04:27:00,55.0,53.0,30.20,SW,225,9.0,9.0,93,0.00,,,0.00,Rainwise IP-100,2013-10-16 08:27:00,
2013-10-16 04:32:00,55.0,53.0,30.20,SW,225,1.0,12.0,92,0.00,,,0.00,Rainwise IP-100,2013-10-16 08:32:00,
2013-10-16 04:37:00,55.0,53.0,30.20,SW,225,4.0,10.0,92,0.00,,,0.00,Rainwise IP-100,2013-10-16 08:37:00,
2013-10-16 04:42:00,55.0,53.0,30.20,SW,225,6.0,8.0,93,0.00,,,0.00,Rainwise IP-100,2013-10-16 08:42:00,
2013-10-16 04:47:00,55.0,53.0,30.20,SSW,202,7.0,8.0,93,0.00,,,0.00,Rainwise IP-100,2013-10-16 08:47:00,
2013-10-16 04:52:00,55.0,53.0,30.20,SSW,202,7.0,10.0,93,0.00,,,0.00,Rainwise IP-100,2013-10-16 08:52:00,
2013-10-16 04:57:00,55.0,53.0,30.20,SSW,202,7.0,11.0,93,0.00,,,0.00,Rainwise IP-100,2013-10-16 08:57:00,
2013-10-16 05:02:00,54.0,52.0,30.19,SSW,202,7.0,15.0,94,0.00,,,0.00,Rainwise IP-100,2013-10-16 09:02:00,
2013-10-16 05:07:00,54.0,52.0,30.19,SW,225,6.0,9.0,94,0.00,,,0.00,Rainwise IP-100,2013-10-16 09:07:00,
2013-10-16 05:12:00,54.0,52.0,30.21,SW,225,9.0,12.0,94,0.00,,,0.00,Rainwise IP-100,2013-10-16 09:12:00,
2013-10-16 05:17:00,54.0,52.0,30.21,SSW,202,8.0,12.0,94,0.00,,,0.00,Rainwise IP-100,2013-10-16 09:17:00,
2013-10-16 05:22:00,54.0,52.0,30.21,SSW,202,11.0,15.0,93,0.00,,,0.00,Rainwise IP-100,2013-10-16 09:22:00,
2013-10-16 05:27:00,54.0,52.0,30.21,South,180,6.0,15.0,94,0.00,,,0.00,Rainwise IP-100,2013-10-16 09:27:00,
2013-10-16 05:32:00,54.0,52.0,30.21,South,180,5.0,11.0,94,0.00,,,0.00,Rainwise IP-100,2013-10-16 09:32:00,
2013-10-16 05:37:00,54.0,52.0,30.21,South,180,6.0,8.0,94,0.00,,,0.00,Rainwise IP-100,2013-10-16 09:37:00,
2013-10-16 05:42:00,54.0,53.0,30.21,ESE,112,1.0,9.0,95,0.00,,,0.00,Rainwise IP-100,2013-10-16 09:42:00,
2013-10-16 05:47:00,54.0,53.0,30.21,SE,135,7.0,10.0,95,0.00,,,0.00,Rainwise IP-100,2013-10-16 09:47:00,
2013-10-16 05:52:00,53.0,51.0,30.20,SW,225,10.0,10.0,95,0.00,,,0.00,Rainwise IP-100,2013-10-16 09:52:00,
2013-10-16 05:57:00,53.0,51.0,30.20,SSW,202,10.0,12.0,95,0.00,,,0.00,Rainwise IP-100,2013-10-16 09:57:00,
2013-10-16 06:02:00,53.0,51.0,30.20,SW,225,6.0,12.0,95,0.00,,,0.00,Rainwise IP-100,2013-10-16 10:02:00,
2013-10-16 06:07:00,53.0,51.0,30.20,SW,225,7.0,11.0,95,0.00,,,0.00,Rainwise IP-100,2013-10-16 10:07:00,
2013-10-16 06:12:00,53.0,51.0,30.21,SSW,202,6.0,10.0,95,0.00,,,0.00,Rainwise IP-100,2013-10-16 10:12:00,
2013-10-16 06:17:00,53.0,51.0,30.21,SSW,202,7.0,12.0,94,0.00,,,0.00,Rainwise IP-100,2013-10-16 10:17:00,
2013-10-16 06:22:00,53.0,51.0,30.21,South,180,6.0,14.0,94,0.00,,,0.00,Rainwise IP-100,2013-10-16 10:22:00,
2013-10-16 06:27:00,53.0,51.0,30.21,SW,225,6.0,15.0,94,0.00,,,0.00,Rainwise IP-100,2013-10-16 10:27:00,
2013-10-16 06:32:00,53.0,51.0,30.19,South,180,9.0,14.0,94,0.00,,,0.00,Rainwise IP-100,2013-10-16 10:32:00,
2013-10-16 06:37:00,53.0,51.0,30.19,SW,225,5.0,11.0,94,0.00,,,0.00,Rainwise IP-100,2013-10-16 10:37:00,
2013-10-16 06:42:00,53.0,51.0,30.20,SSW,202,7.0,13.0,94,0.00,,,0.00,Rainwise IP-100,2013-10-16 10:42:00,
2013-10-16 06:47:00,53.0,51.0,30.20,SW,225,10.0,18.0,94,0.00,,,0.00,Rainwise IP-100,2013-10-16 10:47:00,
2013-10-16 06:52:00,53.0,50.0,30.21,South,180,8.0,13.0,93,0.00,,,0.00,Rainwise IP-100,2013-10-16 10:52:00,
2013-10-16 06:57:00,53.0,50.0,30.21,SW,225,5.0,11.0,93,0.00,,,0.00,Rainwise IP-100,2013-10-16 10:57:00,
2013-10-16 07:02:00,53.0,50.0,30.19,South,180,3.0,7.0,93,0.00,,,0.00,Rainwise IP-100,2013-10-16 11:02:00,
2013-10-16 07:07:00,53.0,51.0,30.19,WSW,247,6.0,7.0,94,0.00,,,0.00,Rainwise IP-100,2013-10-16 11:07:00,
2013-10-16 07:12:00,53.0,50.0,30.19,SW,225,11.0,12.0,93,0.00,,,0.00,Rainwise IP-100,2013-10-16 11:12:00,
2013-10-16 07:17:00,53.0,50.0,30.19,SW,225,10.0,11.0,93,0.00,,,0.00,Rainwise IP-100,2013-10-16 11:17:00,
2013-10-16 07:22:00,53.0,50.0,30.19,SW,225,10.0,12.0,92,0.00,,,0.00,Rainwise IP-100,2013-10-16 11:22:00,
2013-10-16 07:27:00,54.0,52.0,30.19,SW,225,7.0,16.0,92,0.00,,,0.00,Rainwise IP-100,2013-10-16 11:27:00,
2013-10-16 07:32:00,54.0,52.0,30.19,SW,225,5.0,9.0,92,0.00,,,0.00,Rainwise IP-100,2013-10-16 11:32:00,
2013-10-16 07:37:00,53.0,50.0,30.19,WSW,247,7.0,11.0,92,0.00,,,0.00,Rainwise IP-100,2013-10-16 11:37:00,
2013-10-16 07:42:00,54.0,52.0,30.19,WSW,247,6.0,10.0,92,0.00,,,0.00,Rainwise IP-100,2013-10-16 11:42:00,
2013-10-16 07:47:00,54.0,51.0,30.19,SW,225,7.0,10.0,91,0.00,,,0.00,Rainwise IP-100,2013-10-16 11:47:00,
2013-10-16 07:52:00,54.0,51.0,30.19,West,270,6.0,10.0,91,0.00,,,0.00,Rainwise IP-100,2013-10-16 11:52:00,
2013-10-16 07:57:00,54.0,52.0,30.19,WSW,247,5.0,7.0,92,0.00,,,0.00,Rainwise IP-100,2013-10-16 11:57:00,
2013-10-16 08:02:00,54.0,52.0,30.19,SSW,202,5.0,7.0,92,0.00,,,0.00,Rainwise IP-100,2013-10-16 12:02:00,
2013-10-16 08:07:00,54.0,51.0,30.19,SW,225,5.0,9.0,91,0.00,,,0.00,Rainwise IP-100,2013-10-16 12:07:00,
2013-10-16 08:12:00,54.0,51.0,30.18,SW,225,7.0,10.0,91,0.00,,,0.00,Rainwise IP-100,2013-10-16 12:12:00,
2013-10-16 08:17:00,54.0,51.0,30.18,WSW,247,7.0,9.0,91,0.00,,,0.00,Rainwise IP-100,2013-10-16 12:17:00,
2013-10-16 08:22:00,54.0,51.0,30.18,SW,225,7.0,8.0,91,0.00,,,0.00,Rainwise IP-100,2013-10-16 12:22:00,
2013-10-16 08:27:00,54.0,51.0,30.18,WSW,247,5.0,8.0,91,0.00,,,0.00,Rainwise IP-100,2013-10-16 12:27:00,
2013-10-16 08:32:00,54.0,51.0,30.17,WSW,247,4.0,9.0,91,0.00,,,0.00,Rainwise IP-100,2013-10-16 12:32:00,
2013-10-16 08:37:00,54.0,51.0,30.17,West,270,6.0,9.0,91,0.00,,,0.00,Rainwise IP-100,2013-10-16 12:37:00,
2013-10-16 08:42:00,54.0,51.0,30.17,SW,225,8.0,12.0,91,0.00,,,0.00,Rainwise IP-100,2013-10-16 12:42:00,
2013-10-16 08:47:00,55.0,53.0,30.17,SW,225,4.0,11.0,90,0.00,,,0.00,Rainwise IP-100,2013-10-16 12:47:00,
2013-10-16 08:52:00,55.0,52.0,30.17,WSW,247,6.0,13.0,88,0.00,,,0.00,Rainwise IP-100,2013-10-16 12:52:00,
2013-10-16 08:57:00,55.0,52.0,30.17,SW,225,8.0,15.0,89,0.00,,,0.00,Rainwise IP-100,2013-10-16 12:57:00,
2013-10-16 09:02:00,55.0,52.0,30.17,SSW,202,7.0,17.0,88,0.00,,,0.00,Rainwise IP-100,2013-10-16 13:02:00,
2013-10-16 09:07:00,55.0,52.0,30.17,SW,225,10.0,16.0,89,0.00,,,0.00,Rainwise IP-100,2013-10-16 13:07:00,
2013-10-16 09:12:00,55.0,52.0,30.16,SW,225,9.0,12.0,88,0.00,,,0.00,Rainwise IP-100,2013-10-16 13:12:00,
2013-10-16 09:17:00,55.0,51.0,30.16,SSW,202,13.0,13.0,87,0.00,,,0.00,Rainwise IP-100,2013-10-16 13:17:00,
2013-10-16 09:22:00,55.0,51.0,30.17,SW,225,6.0,16.0,87,0.00,,,0.00,Rainwise IP-100,2013-10-16 13:22:00,
2013-10-16 09:27:00,55.0,52.0,30.17,SW,225,4.0,17.0,88,0.00,,,0.00,Rainwise IP-100,2013-10-16 13:27:00,
2013-10-16 09:32:00,55.0,51.0,30.15,SW,225,7.0,12.0,87,0.00,,,0.00,Rainwise IP-100,2013-10-16 13:32:00,
2013-10-16 09:37:00,55.0,51.0,30.15,SSW,202,7.0,12.0,86,0.00,,,0.00,Rainwise IP-100,2013-10-16 13:37:00,
2013-10-16 09:42:00,55.0,51.0,30.16,SW,225,9.0,13.0,86,0.00,,,0.00,Rainwise IP-100,2013-10-16 13:42:00,
2013-10-16 09:47:00,55.0,51.0,30.16,SSW,202,6.0,11.0,86,0.00,,,0.00,Rainwise IP-100,2013-10-16 13:47:00,
2013-10-16 09:52:00,55.0,51.0,30.15,SW,225,7.0,12.0,86,0.00,,,0.00,Rainwise IP-100,2013-10-16 13:52:00,
2013-10-16 09:57:00,55.0,50.0,30.15,SW,225,6.0,12.0,85,0.00,,,0.00,Rainwise IP-100,2013-10-16 13:57:00,
2013-10-16 10:02:00,55.0,50.0,30.15,SW,225,7.0,8.0,84,0.00,,,0.00,Rainwise IP-100,2013-10-16 14:02:00,
2013-10-16 10:07:00,55.0,50.0,30.15,SSW,202,4.0,12.0,85,0.00,,,0.00,Rainwise IP-100,2013-10-16 14:07:00,
2013-10-16 10:12:00,56.0,51.0,30.15,SW,225,7.0,7.0,85,0.00,,,0.00,Rainwise IP-100,2013-10-16 14:12:00,
2013-10-16 10:17:00,56.0,51.0,30.15,SW,225,3.0,10.0,84,0.00,,,0.00,Rainwise IP-100,2013-10-16 14:17:00,
2013-10-16 10:22:00,56.0,50.0,30.14,SW,225,9.0,12.0,82,0.00,,,0.00,Rainwise IP-100,2013-10-16 14:22:00,
2013-10-16 10:27:00,56.0,50.0,30.14,SW,225,11.0,16.0,82,0.00,,,0.00,Rainwise IP-100,2013-10-16 14:27:00,
2013-10-16 10:32:00,56.0,50.0,30.13,South,180,9.0,12.0,80,0.00,,,0.00,Rainwise IP-100,2013-10-16 14:32:00,
2013-10-16 10:37:00,56.0,50.0,30.13,SW,225,9.0,13.0,81,0.00,,,0.00,Rainwise IP-100,2013-10-16 14:37:00,
2013-10-16 10:42:00,56.0,50.0,30.14,SSE,157,9.0,11.0,81,0.00,,,0.00,Rainwise IP-100,2013-10-16 14:42:00,
2013-10-16 10:47:00,56.0,50.0,30.14,WSW,247,9.0,13.0,81,0.00,,,0.00,Rainwise IP-100,2013-10-16 14:47:00,
2013-10-16 10:52:00,57.0,51.0,30.14,SW,225,7.0,13.0,81,0.00,,,0.00,Rainwise IP-100,2013-10-16 14:52:00,
2013-10-16 10:57:00,57.0,52.0,30.14,SSW,202,7.0,15.0,82,0.00,,,0.00,Rainwise IP-100,2013-10-16 14:57:00,
2013-10-16 11:02:00,57.0,52.0,30.14,SSW,202,8.0,11.0,82,0.00,,,0.00,Rainwise IP-100,2013-10-16 15:02:00,
2013-10-16 11:07:00,57.0,52.0,30.14,SSW,202,9.0,11.0,82,0.00,,,0.00,Rainwise IP-100,2013-10-16 15:07:00,
2013-10-16 11:12:00,57.0,52.0,30.14,SSW,202,9.0,11.0,82,0.00,,,0.00,Rainwise IP-100,2013-10-16 15:12:00,
2013-10-16 11:17:00,57.0,51.0,30.14,SSW,202,7.0,13.0,81,0.00,,,0.00,Rainwise IP-100,2013-10-16 15:17:00,
2013-10-16 11:22:00,57.0,50.0,30.14,South,180,9.0,13.0,79,0.00,,,0.00,Rainwise IP-100,2013-10-16 15:22:00,
2013-10-16 11:27:00,57.0,50.0,30.14,South,180,6.0,12.0,78,0.00,,,0.00,Rainwise IP-100,2013-10-16 15:27:00,
2013-10-16 11:32:00,57.0,50.0,30.14,SSW,202,8.0,10.0,78,0.00,,,0.00,Rainwise IP-100,2013-10-16 15:32:00,
2013-10-16 11:37:00,57.0,50.0,30.14,SW,225,9.0,13.0,78,0.00,,,0.00,Rainwise IP-100,2013-10-16 15:37:00,
2013-10-16 11:42:00,57.0,50.0,30.14,South,180,7.0,11.0,79,0.00,,,0.00,Rainwise IP-100,2013-10-16 15:42:00,
2013-10-16 11:47:00,57.0,50.0,30.12,SSW,202,8.0,11.0,78,0.00,,,0.00,Rainwise IP-100,2013-10-16 15:47:00,
2013-10-16 11:52:00,58.0,51.0,30.13,SSW,202,10.0,13.0,77,0.00,,,0.00,Rainwise IP-100,2013-10-16 15:52:00,
2013-10-16 11:57:00,58.0,50.0,30.13,SSW,202,10.0,16.0,76,0.00,,,0.00,Rainwise IP-100,2013-10-16 15:57:00,
2013-10-16 12:02:00,58.0,50.0,30.12,SW,225,7.0,14.0,75,0.00,,,0.00,Rainwise IP-100,2013-10-16 16:02:00,
2013-10-16 12:07:00,58.0,50.0,30.12,SSW,202,9.0,15.0,75,0.00,,,0.00,Rainwise IP-100,2013-10-16 16:07:00,
2013-10-16 12:12:00,58.0,50.0,30.12,South,180,8.0,13.0,76,0.00,,,0.00,Rainwise IP-100,2013-10-16 16:12:00,
2013-10-16 12:17:00,58.0,50.0,30.12,ESE,112,6.0,8.0,75,0.00,,,0.00,Rainwise IP-100,2013-10-16 16:17:00,
2013-10-16 12:22:00,58.0,50.0,30.12,South,180,6.0,9.0,75,0.00,,,0.00,Rainwise IP-100,2013-10-16 16:22:00,
2013-10-16 12:27:00,59.0,51.0,30.10,SSW,202,7.0,9.0,75,0.00,,,0.00,Rainwise IP-100,2013-10-16 16:27:00,
2013-10-16 12:32:00,59.0,50.0,30.10,SW,225,8.0,13.0,74,0.00,,,0.00,Rainwise IP-100,2013-10-16 16:32:00,
2013-10-16 12:37:00,60.0,51.0,30.10,WSW,247,6.0,16.0,73,0.00,,,0.00,Rainwise IP-100,2013-10-16 16:37:00,
2013-10-16 12:42:00,60.0,50.0,30.09,SW,225,6.0,16.0,72,0.00,,,0.00,Rainwise IP-100,2013-10-16 16:42:00,
2013-10-16 12:47:00,60.0,50.0,30.09,SSW,202,10.0,13.0,72,0.00,,,0.00,Rainwise IP-100,2013-10-16 16:47:00,
2013-10-16 12:52:00,60.0,50.0,30.09,South,180,12.0,13.0,72,0.00,,,0.00,Rainwise IP-100,2013-10-16 16:52:00,
2013-10-16 12:57:00,60.0,50.0,30.09,South,180,13.0,13.0,72,0.00,,,0.00,Rainwise IP-100,2013-10-16 16:57:00,
2013-10-16 13:02:00,60.0,50.0,30.09,South,180,12.0,13.0,72,0.00,,,0.00,Rainwise IP-100,2013-10-16 17:02:00,
2013-10-16 13:07:00,61.0,50.0,30.08,SSW,202,11.0,13.0,67,0.00,,,0.00,Rainwise IP-100,2013-10-16 17:07:00,
2013-10-16 13:12:00,61.0,50.0,30.08,SSW,202,11.0,11.0,67,0.00,,,0.00,Rainwise IP-100,2013-10-16 17:12:00,
2013-10-16 13:17:00,61.0,50.0,30.07,SSW,202,8.0,13.0,66,0.00,,,0.00,Rainwise IP-100,2013-10-16 17:17:00,
2013-10-16 13:22:00,62.0,49.0,30.05,South,180,6.0,19.0,63,0.00,,,0.00,Rainwise IP-100,2013-10-16 17:22:00,
2013-10-16 13:27:00,62.0,50.0,30.05,South,180,10.0,15.0,64,0.00,,,0.00,Rainwise IP-100,2013-10-16 17:27:00,
2013-10-16 13:32:00,62.0,50.0,30.05,South,180,10.0,10.0,64,0.00,,,0.00,Rainwise IP-100,2013-10-16 17:32:00,
2013-10-16 13:37:00,62.0,50.0,30.05,South,180,10.0,10.0,64,0.00,,,0.00,Rainwise IP-100,2013-10-16 17:37:00,
2013-10-16 13:42:00,61.0,49.0,30.05,South,180,11.0,11.0,64,0.00,,,0.00,Rainwise IP-100,2013-10-16 17:42:00,
2013-10-16 13:47:00,62.0,50.0,30.05,SSW,202,10.0,12.0,64,0.00,,,0.00,Rainwise IP-100,2013-10-16 17:47:00,
2013-10-16 13:52:00,62.0,50.0,30.05,SW,225,9.0,16.0,66,0.00,,,0.00,Rainwise IP-100,2013-10-16 17:52:00,
2013-10-16 13:57:00,61.0,49.0,30.05,South,180,6.0,11.0,65,0.00,,,0.00,Rainwise IP-100,2013-10-16 17:57:00,
2013-10-16 14:02:00,61.0,50.0,30.05,South,180,2.0,11.0,66,0.00,,,0.00,Rainwise IP-100,2013-10-16 18:02:00,
2013-10-16 14:07:00,62.0,50.0,30.05,South,180,12.0,12.0,65,0.00,,,0.00,Rainwise IP-100,2013-10-16 18:07:00,
2013-10-16 14:12:00,62.0,49.0,30.05,SW,225,8.0,13.0,63,0.00,,,0.00,Rainwise IP-100,2013-10-16 18:12:00,
2013-10-16 14:17:00,62.0,49.0,30.05,SSE,157,6.0,15.0,62,0.00,,,0.00,Rainwise IP-100,2013-10-16 18:17:00,
2013-10-16 14:22:00,62.0,50.0,30.04,South,180,7.0,12.0,64,0.00,,,0.00,Rainwise IP-100,2013-10-16 18:22:00,
2013-10-16 14:27:00,61.0,50.0,30.04,SSW,202,4.0,9.0,66,0.00,,,0.00,Rainwise IP-100,2013-10-16 18:27:00,
2013-10-16 14:28:00,61.0,50.0,30.04,South,180,6.0,11.0,67,0.00,,,0.00,Rainwise IP-100,2013-10-16 18:28:00,
2013-10-16 14:33:00,61.0,50.0,30.05,South,180,9.0,14.0,66,0.00,,,0.00,Rainwise IP-100,2013-10-16 18:33:00,
2013-10-16 14:38:00,61.0,50.0,30.05,SSW,202,6.0,10.0,68,0.00,,,0.00,Rainwise IP-100,2013-10-16 18:38:00,
2013-10-16 14:43:00,61.0,50.0,30.05,South,180,10.0,19.0,67,0.00,,,0.00,Rainwise IP-100,2013-10-16 18:43:00,
2013-10-16 14:48:00,60.0,50.0,30.05,SSE,157,10.0,14.0,70,0.00,,,0.00,Rainwise IP-100,2013-10-16 18:48:00,
2013-10-16 14:53:00,61.0,50.0,30.04,SSE,157,9.0,12.0,68,0.00,,,0.00,Rainwise IP-100,2013-10-16 18:53:00,
2013-10-16 14:58:00,60.0,49.0,30.04,WSW,247,1.0,13.0,68,0.00,,,0.00,Rainwise IP-100,2013-10-16 18:58:00,
2013-10-16 15:03:00,61.0,50.0,30.04,South,180,10.0,15.0,66,0.00,,,0.00,Rainwise IP-100,2013-10-16 19:03:00,
2013-10-16 15:08:00,61.0,50.0,30.04,WSW,247,3.0,12.0,68,0.00,,,0.00,Rainwise IP-100,2013-10-16 19:08:00,
2013-10-16 15:13:00,61.0,50.0,30.03,South,180,7.0,10.0,67,0.00,,,0.00,Rainwise IP-100,2013-10-16 19:13:00,
2013-10-16 15:18:00,61.0,50.0,30.03,SW,225,7.0,12.0,67,0.00,,,0.00,Rainwise IP-100,2013-10-16 19:18:00,
2013-10-16 15:23:00,61.0,50.0,30.03,SW,225,6.0,12.0,68,0.00,,,0.00,Rainwise IP-100,2013-10-16 19:23:00,
2013-10-16 15:28:00,61.0,50.0,30.03,SW,225,4.0,10.0,67,0.00,,,0.00,Rainwise IP-100,2013-10-16 19:28:00,
2013-10-16 15:33:00,61.0,49.0,30.02,SW,225,6.0,14.0,65,0.00,,,0.00,Rainwise IP-100,2013-10-16 19:33:00,
2013-10-16 15:38:00,61.0,50.0,30.02,SSE,157,10.0,13.0,66,0.00,,,0.00,Rainwise IP-100,2013-10-16 19:38:00,
2013-10-16 15:43:00,61.0,50.0,30.02,South,180,9.0,13.0,68,0.00,,,0.00,Rainwise IP-100,2013-10-16 19:43:00,
2013-10-16 15:48:00,61.0,50.0,30.02,SW,225,8.0,12.0,68,0.00,,,0.00,Rainwise IP-100,2013-10-16 19:48:00,
2013-10-16 15:53:00,61.0,50.0,30.03,SW,225,6.0,11.0,68,0.00,,,0.00,Rainwise IP-100,2013-10-16 19:53:00,
2013-10-16 15:58:00,61.0,50.0,30.03,SW,225,3.0,10.0,66,0.00,,,0.00,Rainwise IP-100,2013-10-16 19:58:00,
2013-10-16 16:03:00,61.0,50.0,30.02,SSE,157,9.0,12.0,66,0.00,,,0.00,Rainwise IP-100,2013-10-16 20:03:00,
2013-10-16 16:08:00,61.0,50.0,30.02,SSW,202,8.0,10.0,66,0.00,,,0.00,Rainwise IP-100,2013-10-16 20:08:00,
2013-10-16 16:13:00,61.0,50.0,30.02,South,180,9.0,13.0,66,0.00,,,0.00,Rainwise IP-100,2013-10-16 20:13:00,
2013-10-16 16:18:00,61.0,50.0,30.02,SW,225,4.0,10.0,66,0.00,,,0.00,Rainwise IP-100,2013-10-16 20:18:00,
2013-10-16 16:23:00,61.0,49.0,30.01,South,180,9.0,14.0,64,0.00,,,0.00,Rainwise IP-100,2013-10-16 20:23:00,
2013-10-16 16:28:00,61.0,49.0,30.01,SW,225,7.0,12.0,65,0.00,,,0.00,Rainwise IP-100,2013-10-16 20:28:00,
2013-10-16 16:33:00,61.0,50.0,30.01,SSW,202,7.0,11.0,67,0.00,,,0.00,Rainwise IP-100,2013-10-16 20:33:00,
2013-10-16 16:38:00,61.0,49.0,30.01,South,180,10.0,13.0,65,0.00,,,0.00,Rainwise IP-100,2013-10-16 20:38:00,
2013-10-16 16:43:00,62.0,51.0,30.00,South,180,6.0,19.0,67,0.00,,,0.00,Rainwise IP-100,2013-10-16 20:43:00,
2013-10-16 16:48:00,62.0,51.0,30.00,SE,135,7.0,13.0,67,0.00,,,0.00,Rainwise IP-100,2013-10-16 20:48:00,
2013-10-16 16:53:00,62.0,51.0,30.01,SSW,202,6.0,11.0,67,0.00,,,0.00,Rainwise IP-100,2013-10-16 20:53:00,
2013-10-16 16:58:00,62.0,51.0,30.01,SSW,202,5.0,9.0,67,0.00,,,0.00,Rainwise IP-100,2013-10-16 20:58:00,
2013-10-16 17:03:00,62.0,50.0,30.01,SSW,202,4.0,12.0,66,0.00,,,0.00,Rainwise IP-100,2013-10-16 21:03:00,
2013-10-16 17:08:00,61.0,50.0,30.01,South,180,9.0,11.0,66,0.00,,,0.00,Rainwise IP-100,2013-10-16 21:08:00,
2013-10-16 17:13:00,61.0,50.0,30.01,SSE,157,11.0,15.0,67,0.00,,,0.00,Rainwise IP-100,2013-10-16 21:13:00,
2013-10-16 17:18:00,61.0,50.0,30.01,South,180,9.0,15.0,68,0.00,,,0.00,Rainwise IP-100,2013-10-16 21:18:00,
2013-10-16 17:23:00,60.0,50.0,30.01,SSW,202,9.0,11.0,70,0.00,,,0.00,Rainwise IP-100,2013-10-16 21:23:00,
2013-10-16 17:28:00,60.0,50.0,30.01,SSW,202,7.0,13.0,69,0.00,,,0.00,Rainwise IP-100,2013-10-16 21:28:00,
2013-10-16 17:33:00,60.0,50.0,30.01,SSW,202,8.0,9.0,71,0.00,,,0.00,Rainwise IP-100,2013-10-16 21:33:00,
2013-10-16 17:38:00,60.0,50.0,30.01,SW,225,6.0,12.0,71,0.00,,,0.00,Rainwise IP-100,2013-10-16 21:38:00,
2013-10-16 17:43:00,59.0,50.0,30.01,South,180,9.0,12.0,73,0.00,,,0.00,Rainwise IP-100,2013-10-16 21:43:00,
2013-10-16 17:48:00,59.0,50.0,30.01,SSW,202,7.0,11.0,74,0.00,,,0.00,Rainwise IP-100,2013-10-16 21:48:00,
2013-10-16 17:53:00,59.0,50.0,30.02,SSW,202,9.0,13.0,73,0.00,,,0.00,Rainwise IP-100,2013-10-16 21:53:00,
2013-10-16 17:58:00,59.0,50.0,30.02,South,180,3.0,13.0,74,0.00,,,0.00,Rainwise IP-100,2013-10-16 21:58:00,
2013-10-16 18:03:00,59.0,51.0,30.03,SW,225,7.0,13.0,75,0.00,,,0.00,Rainwise IP-100,2013-10-16 22:03:00,
2013-10-16 18:08:00,58.0,50.0,30.03,South,180,6.0,10.0,75,0.00,,,0.00,Rainwise IP-100,2013-10-16 22:08:00,
2013-10-16 18:13:00,58.0,50.0,30.02,SW,225,4.0,13.0,75,0.00,,,0.00,Rainwise IP-100,2013-10-16 22:13:00,
2013-10-16 18:18:00,58.0,50.0,30.02,SW,225,6.0,12.0,76,0.00,,,0.00,Rainwise IP-100,2013-10-16 22:18:00,
2013-10-16 18:23:00,58.0,50.0,30.02,SSW,202,9.0,10.0,76,0.00,,,0.00,Rainwise IP-100,2013-10-16 22:23:00,
2013-10-16 18:28:00,58.0,50.0,30.02,SSW,202,7.0,13.0,75,0.00,,,0.00,Rainwise IP-100,2013-10-16 22:28:00,
2013-10-16 18:33:00,58.0,50.0,30.02,South,180,6.0,11.0,75,0.00,,,0.00,Rainwise IP-100,2013-10-16 22:33:00,
2013-10-16 18:38:00,58.0,50.0,30.02,South,180,6.0,11.0,73,0.00,,,0.00,Rainwise IP-100,2013-10-16 22:38:00,
2013-10-16 18:43:00,59.0,50.0,30.01,South,180,6.0,11.0,72,0.00,,,0.00,Rainwise IP-100,2013-10-16 22:43:00,
2013-10-16 18:48:00,59.0,50.0,30.01,SW,225,5.0,8.0,73,0.00,,,0.00,Rainwise IP-100,2013-10-16 22:48:00,
2013-10-16 18:53:00,58.0,50.0,30.01,SW,225,7.0,7.0,74,0.00,,,0.00,Rainwise IP-100,2013-10-16 22:53:00,
2013-10-16 18:58:00,58.0,50.0,30.01,SW,225,5.0,8.0,74,0.00,,,0.00,Rainwise IP-100,2013-10-16 22:58:00,
2013-10-16 19:03:00,58.0,50.0,30.01,SW,225,6.0,9.0,73,0.00,,,0.00,Rainwise IP-100,2013-10-16 23:03:00,
2013-10-16 19:08:00,58.0,50.0,30.01,SW,225,6.0,7.0,73,0.00,,,0.00,Rainwise IP-100,2013-10-16 23:08:00,
2013-10-16 19:13:00,58.0,50.0,30.02,SSW,202,6.0,7.0,73,0.00,,,0.00,Rainwise IP-100,2013-10-16 23:13:00,
2013-10-16 19:18:00,58.0,50.0,30.02,SSW,202,6.0,10.0,73,0.00,,,0.00,Rainwise IP-100,2013-10-16 23:18:00,
2013-10-16 19:23:00,58.0,50.0,30.01,South,180,9.0,12.0,73,0.00,,,0.00,Rainwise IP-100,2013-10-16 23:23:00,
2013-10-16 19:28:00,58.0,50.0,30.01,SW,225,2.0,9.0,74,0.00,,,0.00,Rainwise IP-100,2013-10-16 23:28:00,
2013-10-16 19:33:00,58.0,50.0,30.01,West,270,3.0,7.0,75,0.00,,,0.00,Rainwise IP-100,2013-10-16 23:33:00,
2013-10-16 19:38:00,57.0,49.0,30.01,West,270,3.0,5.0,75,0.00,,,0.00,Rainwise IP-100,2013-10-16 23:38:00,
2013-10-16 19:43:00,57.0,49.0,30.01,WSW,247,4.0,6.0,75,0.00,,,0.00,Rainwise IP-100,2013-10-16 23:43:00,
2013-10-16 19:48:00,58.0,50.0,30.01,SSW,202,6.0,7.0,75,0.00,,,0.00,Rainwise IP-100,2013-10-16 23:48:00,
2013-10-16 19:53:00,58.0,49.0,30.01,South,180,5.0,7.0,72,0.00,,,0.00,Rainwise IP-100,2013-10-16 23:53:00,
2013-10-16 19:58:00,58.0,50.0,30.01,WSW,247,5.0,7.0,74,0.00,,,0.00,Rainwise IP-100,2013-10-16 23:58:00,
2013-10-16 20:03:00,58.0,50.0,30.01,WSW,247,5.0,7.0,74,0.00,,,0.00,Rainwise IP-100,2013-10-17 00:03:00,
2013-10-16 20:08:00,58.0,50.0,30.01,SW,225,7.0,7.0,75,0.00,,,0.00,Rainwise IP-100,2013-10-17 00:08:00,
2013-10-16 20:13:00,58.0,50.0,30.00,SSW,202,6.0,9.0,74,0.00,,,0.00,Rainwise IP-100,2013-10-17 00:13:00,
2013-10-16 20:18:00,58.0,50.0,30.00,SSW,202,6.0,7.0,74,0.00,,,0.00,Rainwise IP-100,2013-10-17 00:18:00,
2013-10-16 20:23:00,58.0,50.0,30.00,SW,225,4.0,7.0,75,0.00,,,0.00,Rainwise IP-100,2013-10-17 00:23:00,
2013-10-16 20:28:00,57.0,49.0,30.00,WNW,292,5.0,8.0,75,0.00,,,0.00,Rainwise IP-100,2013-10-17 00:28:00,
2013-10-16 20:33:00,57.0,50.0,30.01,SSW,202,5.0,6.0,76,0.00,,,0.00,Rainwise IP-100,2013-10-17 00:33:00,
2013-10-16 20:38:00,57.0,49.0,30.01,SSW,202,7.0,10.0,75,0.00,,,0.00,Rainwise IP-100,2013-10-17 00:38:00,
2013-10-16 20:43:00,57.0,49.0,30.01,South,180,6.0,9.0,75,0.00,,,0.00,Rainwise IP-100,2013-10-17 00:43:00,
2013-10-16 20:48:00,57.0,49.0,30.01,South,180,2.0,6.0,75,0.00,,,0.00,Rainwise IP-100,2013-10-17 00:48:00,
2013-10-16 20:53:00,57.0,50.0,30.01,SSW,202,6.0,7.0,76,0.00,,,0.00,Rainwise IP-100,2013-10-17 00:53:00,
2013-10-16 20:58:00,57.0,49.0,30.01,South,180,2.0,8.0,75,0.00,,,0.00,Rainwise IP-100,2013-10-17 00:58:00,
2013-10-16 21:03:00,57.0,49.0,30.00,SW,225,4.0,7.0,75,0.00,,,0.00,Rainwise IP-100,2013-10-17 01:03:00,
2013-10-16 21:08:00,57.0,50.0,30.00,SW,225,2.0,7.0,77,0.00,,,0.00,Rainwise IP-100,2013-10-17 01:08:00,
2013-10-16 21:13:00,57.0,50.0,30.00,SSW,202,4.0,6.0,76,0.00,,,0.00,Rainwise IP-100,2013-10-17 01:13:00,
2013-10-16 21:18:00,57.0,50.0,30.00,SSW,202,0.0,4.0,76,0.00,,,0.00,Rainwise IP-100,2013-10-17 01:18:00,
2013-10-16 21:23:00,57.0,50.0,30.00,SSW,202,0.0,0.0,76,0.00,,,0.00,Rainwise IP-100,2013-10-17 01:23:00,
2013-10-16 21:28:00,57.0,50.0,30.00,SSW,202,0.0,0.0,77,0.00,,,0.00,Rainwise IP-100,2013-10-17 01:28:00,
2013-10-16 21:33:00,57.0,50.0,29.99,SSW,202,2.0,5.0,78,0.00,,,0.00,Rainwise IP-100,2013-10-17 01:33:00,
2013-10-16 21:38:00,57.0,50.0,29.99,SE,135,0.0,6.0,76,0.00,,,0.00,Rainwise IP-100,2013-10-17 01:38:00,
2013-10-16 21:43:00,57.0,50.0,29.98,ESE,112,1.0,3.0,78,0.00,,,0.00,Rainwise IP-100,2013-10-17 01:43:00,
2013-10-16 21:48:00,57.0,51.0,29.98,NNE,22,1.0,2.0,81,0.00,,,0.00,Rainwise IP-100,2013-10-17 01:48:00,
2013-10-16 21:53:00,56.0,51.0,29.98,NNE,22,0.0,2.0,85,0.00,,,0.00,Rainwise IP-100,2013-10-17 01:53:00,
2013-10-16 21:58:00,56.0,50.0,29.98,SW,225,4.0,6.0,82,0.00,,,0.00,Rainwise IP-100,2013-10-17 01:58:00,
2013-10-16 22:03:00,56.0,51.0,29.98,SSW,202,5.0,7.0,84,0.00,,,0.00,Rainwise IP-100,2013-10-17 02:03:00,
2013-10-16 22:08:00,56.0,52.0,29.98,West,270,4.0,7.0,86,0.00,,,0.00,Rainwise IP-100,2013-10-17 02:08:00,
2013-10-16 22:13:00,56.0,52.0,29.98,SW,225,7.0,8.0,87,0.00,,,0.00,Rainwise IP-100,2013-10-17 02:13:00,
2013-10-16 22:18:00,55.0,52.0,29.98,SW,225,6.0,8.0,89,0.00,,,0.00,Rainwise IP-100,2013-10-17 02:18:00,
2013-10-16 22:23:00,55.0,53.0,29.97,WSW,247,3.0,7.0,90,0.00,,,0.00,Rainwise IP-100,2013-10-17 02:23:00,
2013-10-16 22:28:00,55.0,53.0,29.97,West,270,3.0,6.0,91,0.00,,,0.00,Rainwise IP-100,2013-10-17 02:28:00,
2013-10-16 22:33:00,55.0,53.0,29.97,WSW,247,1.0,6.0,90,0.00,,,0.00,Rainwise IP-100,2013-10-17 02:33:00,
2013-10-16 22:38:00,55.0,53.0,29.97,SW,225,1.0,6.0,91,0.00,,,0.00,Rainwise IP-100,2013-10-17 02:38:00,
2013-10-16 22:43:00,55.0,53.0,29.97,SW,225,2.0,5.0,91,0.00,,,0.00,Rainwise IP-100,2013-10-17 02:43:00,
2013-10-16 22:48:00,55.0,53.0,29.97,SW,225,2.0,4.0,91,0.00,,,0.00,Rainwise IP-100,2013-10-17 02:48:00,
2013-10-16 22:53:00,54.0,51.0,29.98,West,270,3.0,6.0,91,0.00,,,0.00,Rainwise IP-100,2013-10-17 02:53:00,
2013-10-16 22:58:00,54.0,51.0,29.98,South,180,1.0,5.0,91,0.00,,,0.00,Rainwise IP-100,2013-10-17 02:58:00,
2013-10-16 23:03:00,55.0,53.0,29.97,SW,225,5.0,7.0,91,0.00,,,0.00,Rainwise IP-100,2013-10-17 03:03:00,
2013-10-16 23:08:00,55.0,53.0,29.97,SSW,202,6.0,7.0,91,0.00,,,0.00,Rainwise IP-100,2013-10-17 03:08:00,
2013-10-16 23:13:00,55.0,53.0,29.96,SW,225,6.0,9.0,91,0.00,,,0.00,Rainwise IP-100,2013-10-17 03:13:00,
2013-10-16 23:18:00,55.0,53.0,29.96,SW,225,7.0,10.0,90,0.00,,,0.00,Rainwise IP-100,2013-10-17 03:18:00,
2013-10-16 23:23:00,55.0,53.0,29.96,WSW,247,5.0,12.0,90,0.00,,,0.00,Rainwise IP-100,2013-10-17 03:23:00,
2013-10-16 23:28:00,55.0,53.0,29.96,SSW,202,8.0,10.0,90,0.00,,,0.00,Rainwise IP-100,2013-10-17 03:28:00,
2013-10-16 23:33:00,55.0,53.0,29.95,SW,225,6.0,9.0,91,0.00,,,0.00,Rainwise IP-100,2013-10-17 03:33:00,
2013-10-16 23:38:00,55.0,53.0,29.95,South,180,7.0,10.0,91,0.00,,,0.00,Rainwise IP-100,2013-10-17 03:38:00,
2013-10-16 23:43:00,55.0,53.0,29.95,SSW,202,7.0,12.0,90,0.00,,,0.00,Rainwise IP-100,2013-10-17 03:43:00,
2013-10-16 23:48:00,55.0,53.0,29.95,SW,225,6.0,7.0,90,0.00,,,0.00,Rainwise IP-100,2013-10-17 03:48:00,
2013-10-16 23:53:00,55.0,53.0,29.94,South,180,6.0,10.0,91,0.00,,,0.00,Rainwise IP-100,2013-10-17 03:53:00,
2013-10-16 23:58:00,54.0,51.0,29.94,SW,225,2.0,6.0,91,0.00,,,0.00,Rainwise IP-100,2013-10-17 03:58:00,